Weather History for Weaverville, CA

Change the Weather History Date:

Tuesday, December 4, 2012

  Actual Average (KRDD) Record (KRDD)
Temperature  
Mean Temperature 42 °F -  
Max Temperature 44 °F 56 °F 71 °F (2006)
Min Temperature 41 °F 37 °F 28 °F (1990)
Degree Days  
Heating Degree Days 22    
Cooling Degree Days 0    
Moisture  
Dew Point 42 °F    
Average Humidity 95    
Maximum Humidity 100    
Minimum Humidity 87    
Precipitation  
Precipitation 1.81 in 0.19 in 1.37 in (1996)
Month to date precipitation 0.73  
Year to date precipitation 29.08  
Since 1 July precipitation 8.22  
Sea Level Pressure  
Sea Level Pressure 30.17 in    
Wind  
Wind Speed 1 mph (NE)    
Max Wind Speed 6 mph    
Max Gust Speed -    
Visibility 4 miles    
Events      
T = Trace of Precipitation, MM = Missing Value Source: NWS Daily Summary

Daily Weather History Graph

Daily Weather History Graph

Search for Another Location

Airport:

Trip Planner

Search our weather history database for the weather conditions in past years. The results will help you decide how hot, cold, wet, or windy it might be!

Date:

Astronomy

Dec. 04, 2012 Rise Set
Actual Time 7:20 AM PST 4:44 PM PST
Civil Twilight 6:49 AM PST 5:14 PM PST
Nautical Twilight 6:15 AM PST 5:48 PM PST
Astronomical Twilight 5:42 AM PST 6:22 PM PST
Moon 10:38 PM PST (12/4) 11:15 AM PST (12/4)
Length of Visible Light 10h 25m
Length of Day
9h 24m
Waning Gibbous, 68% of the Moon is Illuminated
Dec 4
Waning Gibbous
Dec 6
Last Quarter
Dec 13
New
Dec 19
First Quarter
Dec 28
Full

Hourly Weather History & Observations

Time (PST) Temp. Windchill Dew Point Humidity Pressure Visibility Wind Dir Wind Speed Gust Speed Precip Events Conditions
12:15 AM 41.0 °F - 41.0 °F 100% 30.16 in 5.0 mi Calm Calm - N/A   Unknown
12:35 AM 41.0 °F 39.0 °F 41.0 °F 100% 30.16 in 3.0 mi NNE 3.5 mph - 0.02 in   Unknown
12:55 AM 41.0 °F - 39.2 °F 93% 30.17 in 4.0 mi Calm Calm - 0.04 in   Unknown
1:15 AM 41.0 °F - 41.0 °F 100% 30.17 in 2.5 mi Calm Calm - 0.06 in   Unknown
1:35 AM 41.0 °F - 41.0 °F 100% 30.18 in 3.0 mi Calm Calm - 0.11 in   Unknown
1:55 AM 41.0 °F - 39.2 °F 93% 30.18 in 3.0 mi Calm Calm - 0.16 in   Unknown
2:15 AM 41.0 °F - 41.0 °F 100% 30.18 in 5.0 mi Calm Calm - N/A   Unknown
2:35 AM 41.0 °F - 41.0 °F 100% 30.18 in 1.8 mi Calm Calm - 0.03 in   Unknown
2:55 AM 41.0 °F - 41.0 °F 100% 30.18 in 4.0 mi Calm Calm - 0.05 in   Unknown
3:15 AM 41.0 °F - 41.0 °F 100% 30.17 in 3.0 mi Calm Calm - 0.01 in   Unknown
3:35 AM 41.0 °F - 41.0 °F 100% 30.17 in 5.0 mi Calm Calm - 0.01 in   Unknown
3:55 AM 41.0 °F - 41.0 °F 100% 30.17 in 5.0 mi Calm Calm - 0.01 in   Unknown
4:15 AM 41.0 °F - 41.0 °F 100% 30.16 in 1.8 mi Calm Calm - N/A   Unknown
4:35 AM 41.0 °F - 41.0 °F 100% 30.17 in 3.0 mi Calm Calm - N/A   Unknown
4:55 AM 41.0 °F - 41.0 °F 100% 30.16 in 2.0 mi Calm Calm - N/A   Unknown
5:15 AM 41.0 °F - 41.0 °F 100% 30.17 in 2.0 mi Calm Calm - 0.01 in   Unknown
5:35 AM 41.0 °F - 41.0 °F 100% 30.16 in 2.5 mi Calm Calm - 0.01 in   Unknown
5:55 AM 41.0 °F - 41.0 °F 100% 30.17 in 5.0 mi Calm Calm - 0.01 in   Unknown
6:15 AM 41.0 °F - 41.0 °F 100% 30.17 in 3.0 mi Calm Calm - N/A   Unknown
6:35 AM 41.0 °F - 41.0 °F 100% 30.17 in 1.5 mi Calm Calm - 0.04 in   Unknown
6:55 AM 41.0 °F - 41.0 °F 100% 30.18 in 1.2 mi Calm Calm - 0.06 in   Unknown
7:15 AM 41.0 °F - 41.0 °F 100% 30.18 in 1.5 mi Calm Calm - 0.01 in   Unknown
7:35 AM 41.0 °F - 41.0 °F 100% 30.19 in 2.0 mi Calm Calm - 0.01 in   Unknown
7:55 AM 41.0 °F - 41.0 °F 100% 30.18 in 1.5 mi Calm Calm - 0.04 in   Unknown
8:15 AM 41.0 °F - 41.0 °F 100% 30.19 in 2.0 mi Calm Calm - 0.02 in   Unknown
8:35 AM 42.8 °F 39.3 °F 41.0 °F 93% 30.18 in 1.5 mi South 5.8 mph - 0.05 in   Unknown
8:55 AM 41.0 °F - 41.0 °F 100% 30.19 in 0.5 mi Calm Calm - 0.07 in   Unknown
9:15 AM 42.8 °F - 41.0 °F 93% 30.18 in 0.8 mi Calm Calm - 0.03 in   Unknown
9:35 AM 42.8 °F - 41.0 °F 93% 30.19 in 2.5 mi Calm Calm - 0.05 in   Unknown
9:55 AM 42.8 °F - 41.0 °F 93% 30.20 in 1.8 mi Calm Calm - 0.07 in   Unknown
10:15 AM 44.6 °F - 42.8 °F 93% 30.20 in 1.0 mi Calm Calm - 0.04 in   Unknown
10:35 AM 44.6 °F 43.1 °F 42.8 °F 93% 30.20 in 1.5 mi NE 3.5 mph - 0.08 in   Unknown
10:55 AM 44.6 °F - 42.8 °F 93% 30.18 in 10.0 mi Calm Calm - 0.09 in   Unknown
11:15 AM 44.6 °F - 41.0 °F 87% 30.20 in 1.0 mi Calm Calm - 0.03 in   Unknown
11:35 AM 44.6 °F 42.2 °F 42.8 °F 93% 30.18 in 4.0 mi NE 4.6 mph - 0.07 in   Unknown
11:55 AM 44.6 °F - 44.6 °F 100% 30.17 in 3.0 mi Calm Calm - 0.09 in   Unknown
12:15 PM 44.6 °F - 44.6 °F 100% 30.18 in 5.0 mi Calm Calm - 0.02 in   Unknown
12:35 PM 44.6 °F 42.2 °F 44.6 °F 100% 30.16 in 4.0 mi NNE 4.6 mph - 0.04 in   Unknown
12:55 PM 44.6 °F 43.1 °F 44.6 °F 100% 30.16 in 4.0 mi NE 3.5 mph - 0.07 in   Unknown
1:15 PM 44.6 °F - 42.8 °F 93% 30.15 in 3.0 mi Calm Calm - 0.01 in   Unknown
1:35 PM 44.6 °F - 44.6 °F 100% 30.15 in 4.0 mi Calm Calm - 0.04 in   Unknown
1:55 PM 44.6 °F - 42.8 °F 93% 30.16 in 5.0 mi Calm Calm - 0.08 in   Unknown
2:15 PM 44.6 °F - 44.6 °F 100% 30.16 in 3.0 mi Calm Calm - 0.04 in   Unknown
2:35 PM 44.6 °F 43.1 °F 44.6 °F 100% 30.14 in 4.0 mi NNE 3.5 mph - 0.08 in   Unknown
2:55 PM 44.6 °F - 42.8 °F 93% 30.14 in 3.0 mi Calm Calm - 0.12 in   Unknown
3:35 PM 44.6 °F - 42.8 °F 93% 30.16 in 4.0 mi Calm Calm - 0.08 in   Unknown
3:55 PM 44.6 °F 43.1 °F 42.8 °F 93% 30.16 in 2.5 mi NNE 3.5 mph - 0.15 in   Unknown
4:15 PM 44.6 °F - 42.8 °F 93% 30.16 in 3.0 mi Calm Calm - 0.05 in   Unknown
4:35 PM 44.6 °F - 42.8 °F 93% 30.16 in 5.0 mi Calm Calm - 0.09 in   Unknown
4:55 PM 44.6 °F - 42.8 °F 93% 30.15 in 5.0 mi Calm Calm - 0.11 in   Unknown
5:15 PM 44.6 °F - 42.8 °F 93% 30.15 in 3.0 mi Calm Calm - 0.01 in   Unknown
5:35 PM 44.6 °F 42.2 °F 41.0 °F 87% 30.15 in 3.0 mi NE 4.6 mph - 0.04 in   Unknown
5:55 PM 44.6 °F - 41.0 °F 87% 30.15 in 4.0 mi Calm Calm - 0.08 in   Unknown
6:15 PM 42.8 °F 41.1 °F 41.0 °F 93% 30.15 in 3.0 mi NE 3.5 mph - 0.01 in   Unknown
6:35 PM 44.6 °F - 41.0 °F 87% 30.16 in 4.0 mi Calm Calm - 0.04 in   Unknown
6:55 PM 42.8 °F - 41.0 °F 93% 30.16 in 3.0 mi Calm Calm - 0.07 in   Unknown
7:15 PM 42.8 °F - 41.0 °F 93% 30.16 in 3.0 mi Calm Calm - 0.02 in   Unknown
7:35 PM 42.8 °F 41.1 °F 41.0 °F 93% 30.16 in 3.0 mi East 3.5 mph - 0.11 in   Unknown
7:55 PM 42.8 °F - 41.0 °F 93% 30.16 in 9.0 mi Calm Calm - 0.13 in   Unknown
8:15 PM 42.8 °F - 41.0 °F 93% 30.15 in 5.0 mi Calm Calm - N/A   Unknown
8:35 PM 42.8 °F - 41.0 °F 93% 30.16 in 8.0 mi Calm Calm - N/A   Unknown
8:55 PM 42.8 °F - 41.0 °F 93% 30.15 in 3.0 mi Calm Calm - 0.04 in   Unknown
9:15 PM 42.8 °F - 41.0 °F 93% 30.15 in 7.0 mi Calm Calm - 0.02 in   Unknown
9:35 PM 44.6 °F - 41.0 °F 87% 30.15 in 6.0 mi Calm Calm - 0.09 in   Unknown
9:55 PM 42.8 °F - 41.0 °F 93% 30.15 in 4.0 mi Calm Calm - 0.15 in   Unknown
10:15 PM 42.8 °F - 41.0 °F 93% 30.14 in 6.0 mi Calm Calm - 0.03 in   Unknown
10:35 PM 42.8 °F - 41.0 °F 93% 30.14 in 8.0 mi Calm Calm - 0.04 in   Unknown
10:55 PM 44.6 °F - 41.0 °F 87% 30.14 in 7.0 mi Calm Calm - 0.08 in   Unknown
11:15 PM 44.6 °F - 41.0 °F 87% 30.14 in 8.0 mi Calm Calm - 0.01 in   Unknown
11:35 PM 44.6 °F - 41.0 °F 87% 30.14 in 8.0 mi Calm Calm - 0.02 in   Unknown
11:55 PM 44.6 °F - 41.0 °F 87% 30.15 in 5.0 mi Calm Calm - 0.04 in   Unknown